Content
SEND FEEDBACK

Daily
Averages
Monthly
Summary
United States of America

AGANA, GUAM


Home > North America > United States > Guam
Elevation: 246 feet     Latitude: 13 29N     Longitude: 144 48E

WEATHER
 
SELECT A DAY
Number of Records: 213,899;   Date Range: 1/1/95 - 10/23/14
 
SHARE

PRINT THIS DATA

[ ← Previous Day ]
WEATHER ALMANAC - SEPTEMBER 29, 2013
[ Next Day → ]
[ °C ]   °F
Weather ElementAverageHighLow
Temperature79.4 °F86 °F (11:54 am)75.2 °F (12:33 pm)
Dewpoint75.6 °F77 °F (5:13 am)73 °F (12:54 pm)
Humidity88.4 %96 % (5:54 am)74 % (9:54 am)
Barometer29.69 in29.74 in (9:54 pm)29.65 in (2:54 pm)
Wind Speed4.3 mph15 mph (12:01 pm)
Wind Gust24.2 mph (12:01 pm)
Weather ElementAverage
Visibility9.6 mi
Wind DirectionESE (111 °)

Weather ElementTotal
Precipitation0.22 in
Cooling Degree Days15.6 (Base 65)
Growing Degree Days30.6 (Base 50)
Averaged from 30 records on September 29, 2013
WEATHER CONDITIONS BREAKOUT
WIND DIRECTION BREAKOUT
WEATHER BY HOUR - SEPTEMBER 29, 2013
[ °C ]   °F
Local TimeTemperatureDewpointHumidityBarometerVisibilityWind DirectionWind SpeedGust SpeedPrecipitationEventsConditions
1:54 AM78.1 °F75.9 °F93 %29.68 in10.0 miCalmClear
2:54 AM78.1 °F75.9 °F93 %29.67 in10.0 miSouth (180°)3.5 mph0.00 inScattered Clouds
3:45 AM78.8 °F75.2 °F89 %29.68 in2.5 miCalm0.03 inRainHeavy Rain
3:54 AM78.1 °F75.9 °F93 %29.66 in5.0 miCalm0.05 inRainLight Rain
4:54 AM78.1 °F75.9 °F93 %29.66 in10.0 miCalm0.06 inMostly Cloudy
5:13 AM78.8 °F77.0 °F94 %29.68 in10.0 miCalmPartly Cloudy
5:54 AM78.1 °F77.0 °F96 %29.66 in10.0 miCalmClear
6:54 AM77.0 °F75.9 °F96 %29.69 in10.0 miCalmClear
7:54 AM79.0 °F77.0 °F94 %29.70 in10.0 miSSW (200°)3.5 mphMostly Cloudy
8:54 AM82.9 °F75.9 °F79 %29.70 in10.0 miSouth (170°)5.8 mphPartly Cloudy
9:54 AM84.0 °F75.0 °F74 %29.71 in10.0 miSouth (170°)8.1 mphPartly Cloudy
10:54 AM84.9 °F77.0 °F77 %29.70 in10.0 miSSE (160°)8.1 mphScattered Clouds
11:54 AM86.0 °F77.0 °F74 %29.69 in10.0 miSouth (170°)13.8 mph18.4 mphScattered Clouds
12:01 PM84.2 °F77.0 °F79 %29.70 in10.0 miSouth (180°)15.0 mph24.2 mphMostly Cloudy
12:33 PM75.2 °F73.4 °F94 %29.70 in10.0 miSSW (200°)11.5 mph21.9 mph0.00 inMostly Cloudy
12:38 PM75.2 °F73.4 °F94 %29.70 in10.0 miSSW (210°)9.2 mph0.00 inThunderstormThunderstorm
12:54 PM75.9 °F73.0 °F91 %29.67 in10.0 miSSW (200°)6.9 mph0.02 inThunderstormThunderstorm
1:54 PM78.1 °F75.0 °F90 %29.66 in10.0 miSSW (200°)3.5 mph0.00 inRain-ThunderstormLight Thunderstorms and Rain
2:10 PM78.8 °F75.2 °F89 %29.68 in9.0 miCalm0.01 inRainLight Rain
2:54 PM80.1 °F75.9 °F87 %29.65 in10.0 miSSW (200°)3.5 mph0.02 inRainLight Rain
3:54 PM82.9 °F75.9 °F79 %29.65 in10.0 miSW (230°)4.6 mph0.00 inScattered Clouds
4:54 PM82.9 °F77.0 °F82 %29.66 in10.0 miWSW (240°)5.8 mphMostly Cloudy
5:54 PM79.0 °F75.9 °F90 %29.69 in10.0 miWSW (250°)13.8 mph20.7 mphMostly Cloudy
6:05 PM78.8 °F75.2 °F89 %29.71 in10.0 miSSW (210°)8.1 mphOvercast
6:54 PM77.0 °F75.0 °F94 %29.70 in10.0 miCalm0.00 inRainLight Rain
7:54 PM78.1 °F75.0 °F90 %29.70 in10.0 miCalm0.03 inRainLight Rain
8:54 PM78.1 °F75.0 °F90 %29.73 in10.0 miCalm0.00 inScattered Clouds
9:54 PM78.1 °F75.0 °F90 %29.74 in10.0 miCalmPartly Cloudy
10:54 PM79.0 °F75.9 °F90 %29.73 in10.0 miCalmPartly Cloudy
11:54 PM78.1 °F75.0 °F90 %29.73 in10.0 miSSE (160°)3.5 mphPartly Cloudy
Hourly data recorded from PGUM, located miles away from Agana, Guam







STORIES FROM OUR PARTNERS